FENGYUN 1C DEB, 31655

Orbit data source: Space-Track

FENGYUN 1C DEB, 31655 is space debris in SSO originally from a launch on Mon, 10 May 1999 UTC launched from the Taiyaun Space Center, China (TSC). Fengyun 1C debris stems from the Chinese weather satellite Fengyun-1C, which was intentionally destroyed by a Chinese anti-satellite missile in 2007. This event dramatically increased the amount of space debris, with thousands of trackable fragments posing hazards to satellites and human spaceflight. The Fengyun 1C debris cloud has become a focal point in discussions about space sustainability and the need for international regulations to prevent the creation of new debris.

Loading next visibility...
Identifier
31655, 1999-025CBM
Orbit
SSO
Country
Flag of CNCN / PRC
Related business
Manufacturer
Unknown
Mission
Spacecraft
Bus & Motor
Unknown
Mass
Unknown
Launch date (UTC)
1999-05-10 (27 years ago)
Launch vehicle
Unknown
Launch site
Taiyaun Space Center, China (TSC)
Object type
Payload
Rocket body
Debris
Shape & HBR
Unknown shape, 0.1 m
Radar Cross Section
Small (<0.1 m²)

Expand to show TLE details & history
Last TLE update: 4 days ago

TLE from 4 days ago
0 FENGYUN 1C DEB
1 31655U 99025CBM 26163.63661666  .00004015  00000-0  37018-2 0  9994
2 31655  99.2799 106.7835 0294646  28.3552 148.6762 13.65376474622003
Epoch: 2026-06-12T15:16Z
TLE epoch observation values (Epoch: 2026-06-12T15:16:43.679Z)
Latitude
1.14594°
Longitude
156.82462°
Altitude
1,206.724 km
Speed
7.158 km/s
True Right ascension
19h 07m 52s
True Declination
1° 08' 22"
Sunlit
Object was in full shadow at epoch
Visualization orbit readout
Latitude
Unknown
Longitude
Unknown
Altitude
Unknown
Speed
Unknown
Apparent Right ascension
Unknown
Apparent Declination
Unknown
Sunlit
N/A
Visualization observer readout
Local Sidereal Time
23:26:40
Azimuth
Unknown
Elevation
Unknown
Doppler factor
Unknown
Orbital elements
Apogee altitude
1,231.264 km
Perigee altitude
795.682 km
Semi-major axis
7,391.61 km
Eccentricity
0.02946
Inclination
99.2799°
RAAN
106.7835°
Arg. of periapsis
28.3552°
True anomaly
150.37765°
Mean anomaly
148.6762°
Eccentric anomaly
149.53221°
Mean motion
3.41535 °/min
Orbital period
105.41 mins
BSTAR
0.0037018
Loading maneuver chart data...
Computing Atmospheric mass density...

Documentation

Showing up to 5 results
|